Regional Weather Roundup
Issued by NWS Green Bay, WI

Home | Current Version | Previous Version | Graphics & Text | Print | Product List | Glossary Off
Versions: 1 2 3 4 5 6 7 8 9 10 11 12 13 14 15 16 17 18 19 20 21 22 23 24 25 26 27 28 29 30 31 32 33 34 35 36 37 38 39 40 41 42 43 44 45 46 47 48 49 50

000
ASUS43 KGRB 240700
RWRGRB

NORTH-CENTRAL AND NORTHEAST WISCONSIN REGIONAL WEATHER ROUNDUP
NATIONAL WEATHER SERVICE GREEN BAY WI
200 AM CDT SUN SEP 24 2017

WIZ005-009-010>012-018-019-240800-
NORTH CENTRAL WISCONSIN

CITY           SKY/WX    TMP DP  RH WIND       PRES   REMARKS
IRONWOOD       MOCLDY    75  65  70 S10G16    30.01R
MANITOWISH WTR NOT AVBL
ARBOR VITAE    NOT AVBL
EAGLE RIVER    NOT AVBL
LAND O LAKES   NOT AVBL
RHINELANDER    CLOUDY    69  65  86 S3        30.08R
PHILLIPS       CLEAR     71  65  82 S7        30.04R
ANTIGO         NOT AVBL
TOMAHAWK       NOT AVBL
MERRILL        NOT AVBL
$$

WIZ013-073-240800-
NORTHEAST WISCONSIN

CITY           SKY/WX    TMP DP  RH WIND       PRES   REMARKS
IRON MOUNTAIN  PTCLDY    71  64  78 S5        30.05R
MARINETTE      PTCLDY    72  66  81 SW5       30.06R
$$

WIZ017-030-035>037-045-240800-
CENTRAL WISCONSIN

CITY           SKY/WX    TMP DP  RH WIND       PRES   REMARKS
MEDFORD        NOT AVBL
WAUSAU         CLEAR     67  64  90 SE3       30.05R
MOSINEE        NOT AVBL
MARSHFIELD     CLEAR     67  61  81 S3        30.05R
WISC RAPIDS    CLEAR     72  64  76 S7        30.06S
STEVENS POINT  NOT AVBL
WAUPACA        NOT AVBL
SHAWANO        NOT AVBL
CLINTONVILLE   NOT AVBL
WAUTOMA        PTCLDY    65  64  97 CALM      30.06S
$$

WIZ038-039-048-051-240800-
FOX VALLEY

CITY           SKY/WX    TMP DP  RH WIND       PRES   REMARKS
NWS GREEN BAY  CLEAR     70  67  90 S3        30.06S
APPLETON       NOT AVBL
OSHKOSH        CLEAR     67  64  90 S3        30.06S
FOND DU LAC    CLEAR     68  63  84 S5        30.07S
$$

WIZ022-050-052-240800-
EAST CENTRAL WISCONSIN

CITY           SKY/WX    TMP DP  RH WIND       PRES   REMARKS
EPHRAIM        NOT AVBL
WASHINGTON ISL NOT AVBL
STURGEON BAY   CLEAR     73  65  75 S8        30.07S
MANITOWOC      CLEAR     65  63  93 CALM      30.08R FOG
SHEBOYGAN      CLEAR     64  64 100 CALM      30.08S
$$

LMZ563-521-522-541>543-240800-
LAKESHORE

STATION/POSITION TIME  TEMP    WIND        PRES    VSBY  WAVE
                       AIR SEA DIR/SP/G                  HT/PER
                 (UTC) (F)     (DEG/KT/KT) (MB)    (MI)  (FT/S)
SHEBOYGAN LKSHOR 0600   68     170/  6/  7 1017.9R
KEWAUNEE LKSHORE 0630   64     160/  6/  7 1017.3S
NORTHPORT PIER   0640   70     150/  6/  7 1017.3S
N MID LAKE BUOY  0550   68 67  180/  6/  8 1018.3R         1/ 4
SISTER BAY LKSHO 0619   76     170/  8/  9   N/A
MENOMINEE LKSHOR 0630   74     190/  4/  6 1017.1S
$$




USA.gov is the U.S. government's official web portal to all federal, state and local government web resources and services.